Find Starlink 33897

NORAD ID: 63865 Int'l Des: 2025-094 Owner: SPXS Country: US Constellation: starlink operational
LEOCIRCULAR

Live-Position

3D-Globus wird geladen...

Über Starlink 33897

Beschreibung wird geladen...

Nächste Überflüge

Passes for default location (London). Set your location on the main map for personalized predictions.

Höhenverlauf

Loading altitude history...

Zweizeiliger Elementsatz

1 63865U 25094B 26106.48273402 -.00004237 00000-0 -34773-3 0 9998
2 63865 70.0017 139.1913 0003891 264.2888 95.7828 14.98303102 53087
Epoch: 16. Apr. 2026 • Age: 12 hours

Aktueller Status

Höhe 574.9 km
Geschwindigkeit 7.58 km/s
Subsatellitenpunkt 20.74°N, 112.38°E
Startdatum 10. Mai 2025
Alter 0.9 years
Typ internet

Technische Details

Klassifizierung Payload
Masse 575.00 kg
Trockenmasse 530.00 kg
Gesamtmasse 575.00 kg
Länge 0.30 m
Durchmesser 4.10 m
Spannweite 29.00 m
Form Box + pan
Hersteller SPXS
Bus-Typ Starlink V2MO
Phasenstatus In Orbit
Besitzer/Staat SPXS/US

Most Searched